Simultaneous Nadir Overpasses (SNOs) Predictions

Prediction of SNOs between GOES-17 and TERRA Satellite Orbit:

Table of predicted SNOs for the next 14.0 days since TLE Epoch: 4/18/2025
Index Date Time (GOES-17) GOES-17 Lat,Lon TERRA Lat,Lon Distance(km) Time Diff (sec)
1 04/19/2025 04:10:41 -0.03,-104.35 0.69,-100.83 399.87 80
2 04/19/2025 16:30:10 0.02,-104.40 0.27,-105.57 133.16 80
3 04/21/2025 16:08:30 0.02,-104.40 -0.69,-101.00 386.08 80
4 04/22/2025 04:28:10 -0.02,-104.34 -0.29,-105.79 163.98 80
5 04/24/2025 04:11:49 -0.01,-104.33 0.64,-101.20 355.85 80
6 04/24/2025 16:28:38 0.01,-104.39 0.36,-105.94 176.87 80
7 04/26/2025 16:09:37 0.01,-104.38 -0.61,-101.36 343.29 80
8 04/27/2025 04:31:56 -0.02,-104.33 -0.42,-106.14 206.68 80
9 04/29/2025 04:12:55 -0.01,-104.32 0.58,-101.56 313.26 80
10 04/29/2025 16:29:44 0.01,-104.37 0.40,-106.31 219.51 80
11 05/01/2025 16:13:22 0.01,-104.36 -0.57,-101.72 300.27 80
12 05/02/2025 04:33:01 -0.01,-104.30 -0.44,-106.50 249.72 80
